Location: Firdgum
(53.2488°N, 5.5615°E)
Time: 22:34:33
(UTC+00:00)

Okean 2 - Pass Details

Date: 08 December 2019
Orbit: 560 x 577 km, 82.5° (Epoch: 22 January)

Event Time Altitude Azimuth Distance (km) Brightness Sun altitude
Rises 06:52:16 0° 351° (N) 2,780 6.5 -6.5°
Reaches altitude 10° 06:54:30 10° 357° (N) 1,875 5.7 -6.3°
Maximum altitude 06:58:33 53° 75° (ENE) 697 4.2 -5.7°
Drops below altitude 10° 07:02:33 10° 153° (SSE) 1,852 7.1 -5.2°
Sets 07:04:45 0° 158° (SSE) 2,741 7.9 -4.9°
